Regional Weather Roundup
Issued by NWS

Home | Current Version | Previous Version | Graphics & Text | Print | Product List | Glossary On
Versions: 1 2 3 4 5 6 7 8 9 10 11 12 13 14 15 16 17 18 19 20 21 22 23 24 25 26 27 28 29 30 31 32 33 34 35 36 37 38 39 40 41 42 43 44 45 46 47 48 49 50
713
ASUS44 KLIX 230101
RWRLA
LOUISIANA WEATHER ROUNDUP
NATIONAL WEATHER SERVICE NEW ORLEANS LA
700 PM CST SAT NOV 22 2014

NOTE: "FAIR" INDICATES FEW OR NO CLOUDS BELOW 12,000 FEET WITH NO
      SIGNIFICANT WEATHER AND/OR OBSTRUCTIONS TO VISIBILITY.
      SKY/WX - SKY CONDITION AND SIGNIFICANT WEATHER.
      TMP - AIR TEMPERATURE.    DP   - DEWPOINT TEMPERATURE.
      RH  - RELATIVE HUMIDITY.  PRES - PRESSURE.
      HX  - HEAT INDEX.         WCI  - WIND CHILL INDEX.

*  THESE STATIONS ARE NOT NWS OR FAA STATIONS AND ARE NOT UNDER
   NWS QUALITY CONTROL.

LAZ040-048-061>063-065-066-069-230200-
SOUTHEAST LOUISIANA

CITY           SKY/WX    TMP DP  RH WIND       PRES   REMARKS
N.O. AUDUBON     N/A     64  61  91 MISG        N/A
N.O. INTL ARPT CLOUDY    64  59  83 E13       30.01S
N.O. LAKEFRONT CLOUDY    62  58  86 E16       30.03R
N.O. DOWNTOWN* CLOUDY    61  55  82 NE5       30.03R
SLIDELL        CLOUDY    65  60  84 E7        30.02F
BATON ROUGE    CLOUDY    64  58  80 E13       29.99F
BOOTHVILLE     LGT RAIN  66  65  96 E9        30.00F
BELLE CHASSE   CLOUDY    65  60  84 E12       30.01R
BOGALUSA*        N/A     64  57  79 NE3       30.05S
NEW ROADS*     NOT AVBL
GONZALES*      NOT AVBL
HAMMOND*       NOT AVBL
HOUMA*         CLOUDY    64  62  93 NE10      29.98F
PORT FOURCHON* NOT AVBL

$$

LAZ041-044-053-054-230200-
SOUTHWEST LOUISIANA

CITY           SKY/WX    TMP DP  RH WIND       PRES   REMARKS
LAKE CHARLES   CLOUDY    66  62  87 SE18      29.88F
LAFAYETTE      CLOUDY    66  61  84 E7        29.92F
PATTERSON      CLOUDY    66  63  88 E12       29.96F
SALT POINT       N/A     68  63  84 E12G18    29.92F
NEW IBERIA     CLOUDY    67  61  81 E17       29.93F
CHENAULT AIRPK CLOUDY    66  63  88 E16       29.89

$$

LAZ027-028-230200-
CENTRAL LOUISIANA

CITY           SKY/WX    TMP DP  RH WIND       PRES   REMARKS
FORT POLK      MOCLDY    65  60  83 E13G20    29.88F
ALEXANDRIA INT CLOUDY    65  59  81 SE16G24   29.91F
ALEXANDRIA     MOCLDY    65  58  78 SE10      29.93F

$$

LAZ001-002-230200-
NORTHWEST LOUISIANA

CITY           SKY/WX    TMP DP  RH WIND       PRES   REMARKS
SHREVEPORT     CLOUDY    65  58  78 SE7       29.88F
BARKSDALE AFB  CLOUDY    64  58  80 SE8       29.90S
DTN SHREVEPORT CLOUDY    65  57  75 E7        29.89F

$$

LAZ014-016-230200-
NORTHEAST LOUISIANA

CITY           SKY/WX    TMP DP  RH WIND       PRES   REMARKS
MONROE         MOCLDY    64  56  75 VRB3      29.97F
TALLULAH       CLOUDY    63  52  67 SE9       30.01F

$$




USA.gov is the U.S. government's official web portal to all federal, state and local government web resources and services.